Flag for U.S.A. Weather past 2 weeks in Fort Myers, Florida, U.S.A.

Now
55 °F

Clear.


Feels Like: 55 °F
Forecast: 54 / 73 °F
Wind: No wind

Location: Page Field

Current Time: Dec 18, 2014 at 5:06:01 AM

Latest Report: Dec 18, 2014 at 3:53 AM


Visibility: 10 mi

Pressure: 30.13 "Hg

Humidity: 93%

Dew point: 53 °F

Location of Fort MyersLocation

Historic Weather in Fort Myers — Graph

°F

Fort Myers temperature yesterday

Maximum temperature yesterday: 76 °F (at 11:53 AM)
Minimum temperature yesterday: 53 °F (at 1:53 AM)
Average temperature yesterday: 64 °F

Past Weeks' High & Low Weather Summary

 TemperatureHumidityPressure
High83 °F (Dec 5, 1:53 PM)100% (Dec 7, 5:53 AM)30.28 "Hg (Dec 7, 5:53 AM)
Low46 °F (Dec 15, 5:53 AM)21% (Dec 13, 2:53 PM)30.01 "Hg (Dec 8, 5:53 PM)
Average63 °F73%30.13 "Hg
* Reported Dec 3 3:53 AM — Dec 18 3:53 AM, Fort Myers, Weather by CustomWeather, © 2014

Note: Actual official high and low records may vary slightly from our data, if they occured in-between our weather recording intervals... More about our weather records

Advertising

Fort Myers weather history for previous 24 hours

 ConditionsComfort  
Time TempWeatherWind HumidityBarometerVisibility
3:53 AM
Dec 18
55 °FClear.No wind93%30.13 "Hg10 mi
2:53 AM57 °FClear.No wind87%30.14 "Hg10 mi
1:53 AM59 °FClear.No wind84%30.16 "Hg10 mi
12:53 AM61 °FClear.5 mph90%30.17 "Hg10 mi
11:53 PM
Dec 17
63 °FPassing clouds.6 mph97%30.17 "Hg10 mi
10:53 PM62 °FClear.No wind90%30.17 "Hg10 mi
9:53 PM62 °FClear.No wind86%30.15 "Hg10 mi
8:53 PM62 °FClear.No wind90%30.15 "Hg10 mi
7:53 PM65 °FClear.No wind81%30.14 "Hg10 mi
6:53 PM67 °FClear.No wind76%30.13 "Hg10 mi
5:53 PM69 °FClear.5 mph68%30.12 "Hg10 mi
4:53 PM72 °FSunny.9 mph53%30.12 "Hg10 mi
3:53 PM75 °FSunny.9 mph36%30.11 "Hg10 mi
2:53 PM76 °FSunny.8 mph43%30.11 "Hg10 mi
1:53 PM76 °FSunny.7 mph54%30.12 "Hg10 mi
12:53 PM76 °FSunny.8 mph39%30.15 "Hg10 mi
11:53 AM76 °FSunny.10 mph39%30.20 "Hg10 mi
10:53 AM74 °FSunny.7 mph48%30.21 "Hg10 mi
9:53 AM70 °FSunny.5 mph66%30.22 "Hg10 mi
8:53 AM64 °FSunny.5 mph87%30.20 "Hg10 mi
7:53 AM57 °FSunny.No wind93%30.19 "Hg9 mi
6:53 AM55 °FPassing clouds.3 mph93%30.17 "Hg9 mi
5:53 AM53 °FClear.No wind93%30.16 "Hg10 mi
Weather by CustomWeather, © 2014

See weather overviewHow to use our weather pages